DW2485 Weather Reports


time (UTC)temp
F
wind
direction
speed
knots
gust
knots
rain 1hr
in
rain 24hr
in
rain mn
in
humidity
%
barometer
mb
20260508070504 48 77 3.5 6.1 0.00 0.00 0.00 100 1014.0
20260508065004 48 66 4.3 7.0 0.00 0.00 0.00 100 1014.1
20260508064504 48 68 3.5 5.2 0.00 0.00 0.00 100 1014.1
20260508061504 49 61 4.3 6.1 0.00 0.00 0.00 100 1014.4
20260508061004 49 59 4.3 7.8 0.00 0.00 0.00 100 1014.5
20260508060504 49 55 4.3 5.2 0.00 0.00 0.00 100 1014.4
20260508055504 49 51 4.3 4.3 0.00 0.00 0.00 100 1014.5
20260508055003 50 64 4.3 5.2 0.00 0.00 0.00 100 1014.6
20260508054504 50 48 3.5 4.3 0.00 0.00 0.00 100 1014.6
20260508053004 49 39 3.5 4.3 0.00 0.00 0.00 100 1014.6
20260508052504 49 33 4.3 5.2 0.00 0.00 0.00 100 1014.6
20260508051504 48 37 1.7 2.6 0.00 0.00 0.00 100 1014.6
20260508051004 48 31 2.6 4.3 0.00 0.00 0.00 100 1014.5
20260508050504 48 37 3.5 4.3 0.00 0.00 0.00 100 1014.5
20260508050004 47 40 3.5 5.2 0.00 0.00 0.00 100 1014.4
20260508045004 50 39 1.7 2.6 0.00 0.00 0.00 100 1014.2
20260508044503 50 39 1.7 2.6 0.00 0.00 0.00 100 1014.3
20260508044004 50 46 2.6 2.6 0.00 0.00 0.00 100 1014.3
20260508042503 47 14 1.7 2.6 0.00 0.00 0.00 100 1014.4
20260508041004 48 29 1.7 2.6 0.00 0.00 0.00 100 1014.3
20260508040006 48 16 1.7 2.6 0.00 0.00 0.00 100 1014.2
20260508035006 48 4 0.9 2.6 0.00 0.00 0.00 100 1014.2
20260508034506 48 59 0.0 1.7 0.00 0.00 0.00 100 1014.2
20260508034006 48 59 0.0 0.9 0.00 0.00 0.00 100 1014.0
20260508033006 49 59 0.0 0.9 0.00 0.00 0.00 100 1013.8
20260508032005 51 59 0.9 1.7 0.00 0.00 0.00 100 1013.7
20260508031005 53 59 0.0 1.7 0.00 0.00 0.00 100 1013.7
20260508025006 53 140 0.0 0.9 0.00 0.00 0.00 100 1013.5
20260508024506 54 146 0.9 1.7 0.00 0.00 0.00 100 1013.5
20260508022006 55 137 0.9 1.7 0.00 0.00 0.00 100 1013.1
20260508021506 56 84 0.9 1.7 0.00 0.00 0.00 100 1013.0
20260508021005 56 31 0.9 1.7 0.00 0.00 0.00 100 1012.9
20260508020006 57 305 0.0 1.7 0.00 0.00 0.00 100 1012.8
20260508015506 57 305 0.0 0.9 0.00 0.00 0.00 100 1012.7
20260508015005 58 294 0.9 0.9 0.00 0.00 0.00 100 1012.6
20260508014505 58 294 0.0 1.7 0.00 0.00 0.00 100 1012.6
20260508014006 59 294 0.0 1.7 0.00 0.00 0.00 100 1012.6
20260508013506 60 294 0.0 0.9 0.00 0.00 0.00 100 1012.5
20260508013005 61 249 0.0 1.7 0.00 0.00 0.00 100 1012.5
20260508012505 61 249 0.0 0.0 0.00 0.00 0.00 100 1012.5
20260508012005 61 249 0.0 1.7 0.00 0.00 0.00 100 1012.6
20260508011505 62 249 0.9 1.7 0.00 0.00 0.00 100 1012.5
20260508011005 62 249 0.9 1.7 0.00 0.00 0.00 100 1012.2
20260508010005 63 267 0.9 2.6 0.00 0.00 0.00 100 1012.2
20260508005505 63 270 1.7 2.6 0.00 0.00 0.00 100 1012.1
20260508004005 63 262 1.7 2.6 0.00 0.00 0.00 100 1012.1
20260508003506 63 271 1.7 2.6 0.00 0.00 0.00 100 1012.0
20260508001005 64 284 7.0 10.4 0.00 0.00 0.00 100 1012.0
20260508000505 64 284 7.0 10.4 0.00 0.00 0.00 100 1012.1
20260508000006 64 269 6.1 10.4 0.00 0.00 0.00 100 1012.0
20260507235505 64 259 6.1 10.4 0.00 0.00 0.00 100 1012.0
20260507234505 65 275 8.7 12.2 0.00 0.00 0.00 100 1012.2
20260507234005 65 266 8.7 13.9 0.00 0.00 0.00 100 1012.1
20260507233505 65 264 6.1 10.4 0.00 0.00 0.00 100 1012.1
20260507232505 65 263 7.8 13.0 0.00 0.00 0.00 100 1012.1
20260507232005 66 259 10.4 13.9 0.00 0.00 0.00 100 1012.0
20260507231505 66 268 9.6 15.6 0.00 0.00 0.00 100 1012.1
20260507230005 66 264 13.9 21.7 0.00 0.00 0.00 100 1012.0
20260507224505 66 218 8.7 13.9 0.00 0.00 0.00 100 1012.3
20260507223006 66 244 11.3 15.6 0.00 0.00 0.00 100 1012.3
20260507220505 65 233 10.4 17.4 0.00 0.00 0.00 100 1012.5
20260507220005 65 240 11.3 17.4 0.00 0.00 0.00 100 1012.2
20260507215505 65 236 9.6 15.6 0.00 0.00 0.00 100 1012.4
20260507215005 66 242 10.4 18.2 0.00 0.00 0.00 100 1012.5
20260507214505 66 263 11.3 15.6 0.00 0.00 0.00 100 1012.4
20260507214005 66 262 12.2 17.4 0.00 0.00 0.00 100 1012.4
20260507213505 66 243 12.2 17.4 0.00 0.00 0.00 100 1012.4
20260507213005 65 246 7.0 12.2 0.00 0.00 0.00 100 1012.5
20260507212505 67 249 11.3 14.8 0.00 0.00 0.00 100 1012.4
20260507212005 68 242 12.2 17.4 0.00 0.00 0.00 100 1012.5
20260507211005 67 250 7.8 14.8 0.00 0.00 0.00 100 1012.4
20260507205005 66 267 11.3 15.6 0.00 0.00 0.00 100 1012.7
20260507204005 65 237 10.4 15.6 0.00 0.00 0.00 100 1012.7
20260507202005 65 242 12.2 25.2 0.00 0.00 0.00 100 1013.0
20260507201504 65 264 13.9 19.1 0.00 0.00 0.00 100 1013.0
20260507200005 62 248 6.1 15.6 0.00 0.00 0.00 100 1013.2
20260507195005 61 252 6.1 11.3 0.00 0.00 0.00 100 1013.4
20260507194504 61 266 10.4 13.9 0.00 0.00 0.00 100 1013.4
20260507194004 62 269 12.2 17.4 0.00 0.00 0.00 100 1013.2
20260507193005 63 251 10.4 17.4 0.00 0.00 0.00 100 1013.3
20260507192005 63 238 12.2 20.0 0.00 0.00 0.00 100 1013.4
20260507191005 64 242 14.8 22.6 0.00 0.00 0.00 100 1013.3
20260507190505 65 266 13.9 17.4 0.00 0.00 0.00 100 1013.3
20260507183005 61 254 8.7 17.4 0.00 0.00 0.00 100 1013.6
20260507181505 61 232 8.7 13.9 0.00 0.00 0.00 100 1013.7
20260507181005 61 227 10.4 13.0 0.00 0.00 0.00 100 1013.8
20260507180005 63 265 10.4 14.8 0.00 0.00 0.00 100 1013.9
20260507175504 62 263 11.3 17.4 0.00 0.00 0.00 100 1013.9
20260507174505 62 236 8.7 18.2 0.00 0.00 0.00 100 1014.1
20260507174005 62 241 12.2 17.4 0.00 0.00 0.00 100 1014.2
20260507173505 62 256 14.8 19.1 0.00 0.00 0.00 100 1014.3
20260507173005 62 257 12.2 15.6 0.00 0.00 0.00 100 1014.4
20260507172005 61 206 7.8 17.4 0.00 0.00 0.00 100 1014.6
20260507170504 60 219 13.9 21.7 0.00 0.00 0.00 100 1014.7
20260507170005 60 224 6.1 17.4 0.00 0.00 0.00 100 1014.7
20260507165504 59 246 13.0 19.1 0.00 0.00 0.00 100 1014.7
20260507164505 60 236 12.2 19.1 0.00 0.00 0.00 100 1014.8
20260507163504 60 207 11.3 17.4 0.00 0.00 0.00 100 1014.9
20260507163004 60 244 13.0 20.0 0.00 0.00 0.00 100 1014.9
20260507161005 58 261 11.3 20.0 0.00 0.00 0.00 100 1014.9
20260507160504 58 247 10.4 13.9 0.00 0.00 0.00 100 1014.9
20260507152504 56 247 10.4 14.8 0.00 0.00 0.00 100 1015.2
20260507151005 56 222 9.6 12.2 0.00 0.00 0.00 100 1015.3
20260507150504 56 224 5.2 10.4 0.00 0.00 0.00 100 1015.4
20260507150005 56 236 8.7 15.6 0.00 0.00 0.00 100 1015.4
20260507145005 56 233 6.1 10.4 0.00 0.00 0.00 100 1015.6
20260507143505 54 247 8.7 13.0 0.00 0.00 0.00 100 1015.7
20260507142505 53 199 8.7 14.8 0.00 0.00 0.00 100 1016.2
20260507142004 52 197 6.1 12.2 0.00 0.00 0.00 100 1016.2
20260507141504 52 208 8.7 13.9 0.00 0.00 0.00 100 1016.2
20260507141004 52 212 7.8 13.0 0.00 0.00 0.00 100 1016.1
20260507140005 52 192 5.2 11.3 0.00 0.00 0.00 100 1016.1
20260507135504 53 195 9.6 13.9 0.00 0.00 0.00 100 1016.2
20260507135004 53 202 7.8 11.3 0.00 0.00 0.00 100 1016.2
20260507134004 52 205 5.2 8.7 0.00 0.00 0.00 100 1016.3
20260507133005 50 197 2.6 5.2 0.00 0.00 0.00 100 1016.4
20260507131505 46 179 0.9 2.6 0.00 0.00 0.00 100 1016.4
20260507125506 43 177 0.9 4.3 0.00 0.00 0.00 100 1016.6
20260507124004 40 124 3.5 4.3 0.00 0.00 0.00 100 1016.8
20260507123504 39 142 3.5 4.3 0.00 0.00 0.00 100 1016.9
20260507122504 38 131 1.7 2.6 0.00 0.00 0.00 100 1016.9
20260507120005 36 115 2.6 2.6 0.00 0.00 0.00 100 1016.9
20260507115505 35 119 1.7 5.2 0.00 0.00 0.00 100 1017.0
20260507114504 35 93 7.0 7.8 0.00 0.00 0.00 100 1016.9
20260507113504 33 87 5.2 6.1 0.00 0.00 0.00 100 1016.9
20260507113005 33 91 4.3 6.1 0.00 0.00 0.00 100 1017.0
20260507111004 32 118 2.6 2.6 0.00 0.00 0.00 100 1017.1
20260507110504 32 114 2.6 2.6 0.00 0.00 0.00 100 1017.1
20260507105504 32 106 2.6 2.6 0.00 0.00 0.00 100 1017.0
20260507104505 32 109 2.6 2.6 0.00 0.00 0.00 100 1017.2
20260507103004 31 97 2.6 2.6 0.00 0.00 0.00 100 1017.3
20260507102504 31 102 2.6 2.6 0.00 0.00 0.00 100 1017.2
20260507102006 32 97 2.6 2.6 0.00 0.00 0.00 100 1017.2
20260507101504 31 97 2.6 2.6 0.00 0.00 0.00 100 1017.4
20260507100505 31 94 1.7 2.6 0.00 0.00 0.00 100 1017.4
20260507095004 32 142 0.9 0.9 0.00 0.00 0.00 100 1017.6
20260507094004 31 155 1.7 1.7 0.00 0.00 0.00 100 1017.7
20260507093004 31 145 1.7 2.6 0.00 0.00 0.00 100 1017.7
20260507092504 31 137 0.9 1.7 0.00 0.00 0.00 100 1017.9
20260507091004 31 155 0.9 1.7 0.00 0.00 0.00 100 1018.1
20260507090005 32 155 0.9 1.7 0.00 0.00 0.00 100 1018.2
20260507085504 31 155 0.9 1.7 0.00 0.00 0.00 100 1018.3
20260507085004 31 155 0.9 1.7 0.00 0.00 0.00 100 1018.4
20260507084005 30 101 0.9 0.9 0.00 0.00 0.00 100 1018.5
20260507083504 30 101 0.9 0.9 0.00 0.00 0.00 100 1018.6
20260507083005 30 101 0.9 0.9 0.00 0.00 0.00 100 1018.5
20260507082004 31 99 2.6 2.6 0.00 0.00 0.00 100 1018.4
20260507081504 31 94 1.7 2.6 0.00 0.00 0.00 100 1018.4
20260507081004 31 187 0.9 1.7 0.00 0.00 0.00 100 1018.5
20260507080504 31 187 0.0 1.7 0.00 0.00 0.00 100 1018.7
20260507080005 31 187 0.0 0.9 0.00 0.00 0.00 100 1018.7
20260507075504 31 187 0.0 0.9 0.00 0.00 0.00 100 1018.7
20260507073004 33 187 0.9 0.9 0.00 0.00 0.00 100 1018.9